Location: ????? ???????
(25.7275°N, 32.5929°E)
Time: 11:25:31
(UTC+00:00)

Meteor 2-4 Rocket - Pass Details

Date: 02 March 2021
Orbit: 799 x 908 km, 81.2° (Epoch: 15 April)

Event Time Altitude Azimuth Distance (km) Brightness Sun altitude
Rises 17:20:42 0° 356° (N) 3,503 7.0 -20.8°
Reaches altitude 10° 17:23:09 10° 359° (N) 2,571 6.3 -21.3°
Maximum altitude 17:29:02 71° 83° (E) 955 3.7 -22.6°
Drops below altitude 10° 17:34:55 10° 167° (SSE) 2,581 6.0 -24.0°
Sets 17:37:23 0° 169° (S) 3,517 6.8 -24.5°
